Location: Stamford Observatory
(41.1241°N, 73.5498°W)
Time: 10:57:43
(UTC-04:00)

IRS-P3 - Visible Passes

Search period start: 30 August 2016 00:00
Search period end: 09 September 2016 00:00
Orbit: 814 x 820 km, 98.7° (Epoch: 29 August)

Date Brightness Start Highest point End Pass type
(mag) Time Alt. Az. Time Alt. Az. Time Alt. Az.
30 Aug 5.7 02:12:20 10° NNE 02:15:13 31° NE 02:15:13 31° NE visible
30 Aug 5.8 03:53:19 10° NNW 03:56:30 20° NW 03:56:30 20° NW visible
31 Aug 6.2 01:50:58 10° NNE 01:53:11 22° NE 01:53:11 22° NE visible
31 Aug 5.5 03:31:05 10° N 03:34:28 28° NW 03:34:28 28° NW visible
01 Sep 6.6 01:29:54 10° NE 01:31:09 15° NE 01:31:09 15° NE visible
01 Sep 5.3 03:09:06 10° N 03:12:26 35° NNW 03:12:26 35° NNW visible
02 Sep 5.4 02:47:16 10° N 02:50:24 36° N 02:50:24 36° N visible
02 Sep 6.3 04:31:00 10° NW 04:31:40 10° WNW 04:31:40 10° WNW visible
03 Sep 5.7 02:25:36 10° NNE 02:28:22 31° NNE 02:28:22 31° NNE visible
03 Sep 6.0 04:07:12 10° NNW 04:09:38 16° NW 04:09:38 16° NW visible
04 Sep 6.1 02:04:07 10° NNE 02:06:20 24° NE 02:06:20 24° NE visible
04 Sep 5.7 03:44:44 10° NNW 03:47:36 22° NW 03:47:36 22° NW visible
05 Sep 6.5 01:42:51 10° NE 01:44:17 17° NE 01:44:17 17° NE visible
05 Sep 5.6 03:22:37 10° N 03:25:34 28° NNW 03:25:34 28° NNW visible
06 Sep 6.9 01:21:57 10° NE 01:22:15 11° NE 01:22:15 11° NE visible
06 Sep 5.6 03:00:42 10° N 03:03:32 31° N 03:03:32 31° N visible
07 Sep 5.8 02:38:56 10° NNE 02:41:30 29° NNE 02:41:30 29° NNE visible
07 Sep 6.2 04:21:26 10° NW 04:22:46 12° NW 04:22:46 12° NW visible
08 Sep 6.1 02:17:19 10° NNE 02:19:27 24° NNE 02:19:27 24° NNE visible
08 Sep 6.0 03:58:31 10° NNW 04:00:44 17° NW 04:00:44 17° NW visible
